When you browse on this site, cookies collect data to enhance your experience and personalize the content and advertising you see.
Visit our Privacy Policy to learn more. By continuing to use the site, you agree to this use of cookies and data.
  • In Schweiz
  • Länderverzeichnis
  • Für 7 Tage
  • Wassertemperatur
  • Satellitenkarten
  • Wetterkarte
  • Widgets
  • user-avatar
    Anmelden

    Stündliche Wetter Lamu

    Heute, 24 Juni, Montag

    Zeit Temperatur Niederschläge Wind Luftdruck Luftfeuchtigkeit
    00:00 +26°C° 0 mm 6 m/S 759 mmHg 88%
    01:00 +26°C° 0 mm 6 m/S 758 mmHg 88%
    02:00 +26°C° 0 mm 6 m/S 758 mmHg 88%
    03:00 +25°C° 0 mm 5 m/S 758 mmHg 89%
    04:00 +26°C° 0 mm 5 m/S 758 mmHg 86%
    05:00 +26°C° 0 mm 5 m/S 758 mmHg 83%
    06:00 +27°C° 0 mm 5 m/S 759 mmHg 79%
    07:00 +28°C° 0 mm 5 m/S 759 mmHg 77%
    08:00 +28°C° 0 mm 5 m/S 759 mmHg 74%
    09:00 +29°C° 0 mm 5 m/S 760 mmHg 72%
    10:00 +30°C° 0 mm 5 m/S 759 mmHg 68%
    11:00 +32°C° 0 mm 5 m/S 759 mmHg 65%
    12:00 +33°C° 0 mm 6 m/S 759 mmHg 62%
    13:00 +33°C° 0 mm 6 m/S 758 mmHg 63%
    14:00 +32°C° 0 mm 6 m/S 758 mmHg 64%
    15:00 +32°C° 0 mm 6 m/S 757 mmHg 65%
    16:00 +30°C° 0 mm 6 m/S 757 mmHg 70%
    17:00 +29°C° 0 mm 5 m/S 757 mmHg 76%
    18:00 +27°C° 0 mm 5 m/S 757 mmHg 82%
    19:00 +27°C° 0 mm 5 m/S 757 mmHg 85%
    20:00 +26°C° 0 mm 5 m/S 758 mmHg 88%
    21:00 +26°C° 0 mm 5 m/S 758 mmHg 91%
    22:00 +26°C° 0 mm 5 m/S 758 mmHg 92%
    23:00 +26°C° 0 mm 5 m/S 758 mmHg 92%

    Morgen, 25 Juni, Dienstag

    Zeit Temperatur Niederschläge Wind Luftdruck Luftfeuchtigkeit
    00:00 +25°C° 0 mm 5 m/S 758 mmHg 93%
    01:00 +25°C° 0 mm 5 m/S 758 mmHg 93%
    02:00 +25°C° 0 mm 5 m/S 758 mmHg 92%
    03:00 +25°C° 0 mm 5 m/S 757 mmHg 92%
    04:00 +25°C° 0 mm 5 m/S 758 mmHg 92%
    05:00 +25°C° 0 mm 5 m/S 758 mmHg 92%
    06:00 +25°C° 0 mm 5 m/S 758 mmHg 92%
    07:00 +27°C° 0.1 mm 5 m/S 759 mmHg 85%
    08:00 +28°C° 0.1 mm 5 m/S 759 mmHg 79%
    09:00 +29°C° 0.1 mm 5 m/S 760 mmHg 72%
    10:00 +30°C° 0.4 mm 5 m/S 760 mmHg 70%
    11:00 +32°C° 0.4 mm 5 m/S 760 mmHg 67%
    12:00 +32°C° 0.4 mm 5 m/S 760 mmHg 64%
    13:00 +32°C° 0.1 mm 6 m/S 759 mmHg 63%
    14:00 +32°C° 0.1 mm 6 m/S 758 mmHg 63%
    15:00 +32°C° 0.1 mm 6 m/S 758 mmHg 63%
    16:00 +30°C° 0 mm 6 m/S 758 mmHg 69%
    17:00 +29°C° 0 mm 6 m/S 758 mmHg 74%
    18:00 +27°C° 0 mm 5 m/S 758 mmHg 80%
    19:00 +27°C° 0 mm 5 m/S 758 mmHg 83%
    20:00 +26°C° 0 mm 5 m/S 759 mmHg 86%
    21:00 +26°C° 0 mm 5 m/S 759 mmHg 88%
    22:00 +26°C° 0 mm 5 m/S 759 mmHg 88%
    23:00 +26°C° 0 mm 5 m/S 759 mmHg 88%

    übermorgen, 26 Juni, Mittwoch

    Zeit Temperatur Niederschläge Wind Luftdruck Luftfeuchtigkeit
    00:00 +25°C° 0 mm 5 m/S 759 mmHg 88%
    01:00 +25°C° 0 mm 5 m/S 759 mmHg 88%
    02:00 +25°C° 0 mm 5 m/S 759 mmHg 88%
    03:00 +25°C° 0 mm 5 m/S 758 mmHg 88%
    04:00 +25°C° 0 mm 5 m/S 759 mmHg 88%
    05:00 +25°C° 0 mm 4 m/S 759 mmHg 88%
    06:00 +23°C° 0 mm 4 m/S 759 mmHg 89%
    07:00 +26°C° 0 mm 5 m/S 760 mmHg 82%
    08:00 +28°C° 0 mm 5 m/S 760 mmHg 75%
    09:00 +29°C° 0 mm 5 m/S 761 mmHg 69%
    10:00 +30°C° 0 mm 6 m/S 760 mmHg 66%
    11:00 +32°C° 0 mm 6 m/S 760 mmHg 63%
    12:00 +32°C° 0 mm 6 m/S 760 mmHg 60%
    13:00 +32°C° 0 mm 6 m/S 759 mmHg 61%
    14:00 +32°C° 0 mm 7 m/S 759 mmHg 62%
    15:00 +32°C° 0 mm 7 m/S 758 mmHg 63%
    16:00 +29°C° 0 mm 7 m/S 758 mmHg 67%
    17:00 +28°C° 0 mm 7 m/S 758 mmHg 72%
    18:00 +27°C° 0 mm 6 m/S 758 mmHg 76%
    19:00 +27°C° 0 mm 6 m/S 759 mmHg 78%
    20:00 +26°C° 0 mm 6 m/S 759 mmHg 81%
    21:00 +26°C° 0 mm 6 m/S 760 mmHg 83%
    22:00 +26°C° 0 mm 7 m/S 760 mmHg 84%
    23:00 +26°C° 0 mm 7 m/S 760 mmHg 85%

    27 Juni, Donnerstag

    Zeit Temperatur Niederschläge Wind Luftdruck Luftfeuchtigkeit
    00:00 +26°C° 0 mm 7 m/S 760 mmHg 86%
    01:00 +26°C° 0 mm 7 m/S 759 mmHg 85%
    02:00 +26°C° 0 mm 7 m/S 759 mmHg 85%
    03:00 +26°C° 0 mm 7 m/S 758 mmHg 85%
    04:00 +26°C° 0 mm 7 m/S 759 mmHg 85%
    05:00 +26°C° 0 mm 7 m/S 759 mmHg 86%
    06:00 +26°C° 0 mm 6 m/S 759 mmHg 86%
    07:00 +27°C° 0 mm 6 m/S 760 mmHg 81%
    08:00 +28°C° 0 mm 7 m/S 761 mmHg 76%
    09:00 +29°C° 0 mm 7 m/S 761 mmHg 70%
    10:00 +30°C° 0 mm 7 m/S 761 mmHg 67%
    11:00 +30°C° 0 mm 7 m/S 761 mmHg 64%
    12:00 +32°C° 0 mm 8 m/S 760 mmHg 61%
    13:00 +32°C° 0 mm 8 m/S 760 mmHg 61%
    14:00 +31°C° 0 mm 8 m/S 759 mmHg 62%
    15:00 +31°C° 0 mm 8 m/S 758 mmHg 63%
    16:00 +29°C° 0 mm 8 m/S 758 mmHg 67%
    17:00 +28°C° 0 mm 8 m/S 758 mmHg 72%
    18:00 +27°C° 0 mm 9 m/S 758 mmHg 76%
    19:00 +27°C° 0 mm 8 m/S 759 mmHg 77%
    20:00 +27°C° 0 mm 8 m/S 759 mmHg 78%
    21:00 +27°C° 0 mm 8 m/S 760 mmHg 79%
    22:00 +27°C° 0 mm 9 m/S 760 mmHg 79%
    23:00 +27°C° 0 mm 9 m/S 760 mmHg 78%

    28 Juni, Freitag

    Zeit Temperatur Niederschläge Wind Luftdruck Luftfeuchtigkeit
    00:00 +27°C° 0 mm 9 m/S 759 mmHg 78%
    01:00 +26°C° 0 mm 8 m/S 759 mmHg 79%
    02:00 +26°C° 0 mm 8 m/S 759 mmHg 79%
    03:00 +26°C° 0 mm 7 m/S 759 mmHg 80%
    04:00 +26°C° 0 mm 7 m/S 759 mmHg 81%
    05:00 +24°C° 0 mm 7 m/S 759 mmHg 82%
    06:00 +24°C° 0 mm 7 m/S 759 mmHg 83%
    07:00 +27°C° 0 mm 7 m/S 760 mmHg 78%
    08:00 +28°C° 0 mm 7 m/S 760 mmHg 72%
    09:00 +29°C° 0 mm 8 m/S 761 mmHg 67%
    10:00 +31°C° 0 mm 8 m/S 761 mmHg 64%
    11:00 +31°C° 0 mm 8 m/S 760 mmHg 61%
    12:00 +32°C° 0 mm 9 m/S 760 mmHg 59%
    13:00 +32°C° 0 mm 9 m/S 759 mmHg 59%
    14:00 +32°C° 0 mm 9 m/S 759 mmHg 60%
    15:00 +31°C° 0 mm 9 m/S 758 mmHg 61%
    16:00 +29°C° 0 mm 9 m/S 758 mmHg 65%
    17:00 +28°C° 0 mm 9 m/S 758 mmHg 70%
    18:00 +27°C° 0 mm 8 m/S 758 mmHg 74%
    19:00 +27°C° 0 mm 8 m/S 759 mmHg 76%
    20:00 +27°C° 0 mm 8 m/S 759 mmHg 78%
    21:00 +26°C° 0 mm 8 m/S 760 mmHg 79%
    22:00 +26°C° 0 mm 8 m/S 760 mmHg 80%
    23:00 +26°C° 0 mm 7 m/S 760 mmHg 81%

    29 Juni, Samstag

    Zeit Temperatur Niederschläge Wind Luftdruck Luftfeuchtigkeit
    00:00 +26°C° 0 mm 7 m/S 760 mmHg 82%
    01:00 +26°C° 0.1 mm 7 m/S 759 mmHg 84%
    02:00 +26°C° 0.1 mm 7 m/S 759 mmHg 85%
    03:00 +26°C° 0.1 mm 7 m/S 759 mmHg 87%
    04:00 +26°C° 0 mm 6 m/S 759 mmHg 87%
    05:00 +26°C° 0 mm 6 m/S 759 mmHg 88%
    06:00 +26°C° 0 mm 6 m/S 759 mmHg 88%
    07:00 +27°C° 0 mm 6 m/S 760 mmHg 82%
    08:00 +28°C° 0 mm 7 m/S 761 mmHg 76%
    09:00 +30°C° 0 mm 7 m/S 761 mmHg 70%
    10:00 +31°C° 0.1 mm 8 m/S 761 mmHg 67%
    11:00 +32°C° 0.1 mm 8 m/S 760 mmHg 64%
    12:00 +32°C° 0.1 mm 8 m/S 760 mmHg 62%
    13:00 +32°C° 0.2 mm 8 m/S 760 mmHg 63%
    14:00 +32°C° 0.2 mm 7 m/S 759 mmHg 64%
    15:00 +32°C° 0.2 mm 7 m/S 759 mmHg 65%
    16:00 +30°C° 0.1 mm 7 m/S 759 mmHg 71%
    17:00 +28°C° 0.1 mm 7 m/S 759 mmHg 76%
    18:00 +27°C° 0.1 mm 7 m/S 759 mmHg 82%
    19:00 +27°C° 0.1 mm 6 m/S 759 mmHg 85%
    20:00 +26°C° 0.1 mm 6 m/S 760 mmHg 88%
    21:00 +26°C° 0.1 mm 6 m/S 760 mmHg 91%
    22:00 +26°C° 0.1 mm 6 m/S 760 mmHg 91%
    23:00 +24°C° 0.1 mm 6 m/S 760 mmHg 92%
    Mehr zeigen